�N����,����,�~����,�C��,���x,�C��,����,���ϕ���,�ő�u�ԕ���,�ő厞����,���˗�,�I�_���x,�n�����x,�ő啗���N��,DTYPE
"20/08/28","00:10",0.0,25.8,85.8,1005.0,283.8,0.5,1.2,316.5,0.00,23.3,27.4,"00:00:08",1
"20/08/28","00:20",0.0,25.7,86.2,1005.0,282.5,0.6,1.1,278.0,0.00,23.3,27.4,"00:16:40",1
"20/08/28","00:30",0.0,26.0,86.5,1004.8,275.4,0.8,1.2,254.6,0.00,23.6,27.4,"00:21:28",1
"20/08/28","00:40",0.0,26.1,86.6,1004.8,292.7,0.7,1.0,280.1,0.00,23.7,27.3,"00:31:36",1
"20/08/28","00:50",0.0,26.1,86.7,1004.8,308.9,1.0,1.2,325.7,0.00,23.7,27.0,"00:44:24",1
"20/08/28","01:00",0.0,26.0,86.7,1004.5,291.9,0.8,1.4,265.9,0.00,23.6,27.2,"00:58:40",1
"20/08/28","01:10",0.0,26.1,86.7,1004.5,318.6,0.8,1.4,355.9,0.00,23.7,27.1,"01:03:20",1
"20/08/28","01:20",0.0,26.1,86.7,1004.5,345.2,0.3,1.2,334.8,0.00,23.7,27.2,"01:18:00",1
"20/08/28","01:30",0.0,25.9,86.7,1004.5,304.6,0.7,1.0,265.4,0.00,23.6,27.2,"01:25:36",1
"20/08/28","01:40",0.0,25.8,86.8,1004.3,287.5,0.2,0.6,273.3,0.00,23.5,27.1,"01:35:44",1
"20/08/28","01:50",0.0,25.8,87.0,1004.5,314.3,0.8,1.2,325.9,0.00,23.5,27.1,"01:46:40",1
"20/08/28","02:00",0.0,25.9,87.1,1004.5,291.0,0.8,1.3,326.6,0.00,23.6,27.2,"01:50:16",1
"20/08/28","02:10",0.0,26.1,87.1,1004.5,289.5,0.7,1.1,294.7,0.00,23.8,26.9,"02:05:12",1
"20/08/28","02:20",0.0,26.1,87.0,1004.1,334.3,1.0,1.6,335.1,0.00,23.8,27.0,"02:18:48",1
"20/08/28","02:30",0.0,26.1,86.9,1004.1,321.2,1.0,1.6,328.8,0.00,23.8,27.2,"02:22:48",1
"20/08/28","02:40",0.0,26.0,86.9,1004.1,306.0,0.6,1.2,338.1,0.00,23.7,27.1,"02:37:52",1
"20/08/28","02:50",0.0,25.9,87.0,1004.3,309.3,0.5,1.1,340.1,0.00,23.6,27.1,"02:40:02",1
"20/08/28","03:00",0.0,26.0,87.0,1004.3,336.7,1.0,1.7,335.7,0.00,23.7,27.1,"02:55:36",1
"20/08/28","03:10",0.0,26.0,87.1,1004.5,300.2,0.6,1.1,320.5,0.00,23.7,26.9,"03:09:36",1
"20/08/28","03:20",0.0,26.0,87.3,1003.8,334.8,0.8,1.6,339.8,0.00,23.8,27.0,"03:13:04",1
"20/08/28","03:30",0.0,26.4,87.4,1004.1,333.1,0.7,1.3,340.2,0.00,24.2,27.0,"03:20:48",1
"20/08/28","03:40",0.0,26.5,87.3,1004.1,300.9,0.5,1.0,335.1,0.00,24.3,26.8,"03:32:16",1
"20/08/28","03:50",0.0,26.4,87.2,1003.6,265.7,0.5,0.8,243.9,0.00,24.1,26.8,"03:42:00",1
"20/08/28","04:00",0.0,26.3,87.2,1003.8,282.7,0.3,0.5,286.3,0.00,24.0,27.0,"03:56:56",1
"20/08/28","04:10",0.0,26.1,87.3,1003.8,325.2,0.5,1.0,336.5,0.00,23.9,26.8,"04:06:32",1
"20/08/28","04:20",0.0,26.2,87.3,1003.8,336.1,1.0,1.3,342.0,0.00,24.0,26.7,"04:15:20",1
"20/08/28","04:30",0.0,26.2,87.5,1004.1,334.2,1.0,1.6,342.0,0.00,24.0,27.0,"04:28:48",1
"20/08/28","04:40",0.0,26.2,87.5,1004.3,295.3,0.7,1.7,341.9,0.00,24.0,26.8,"04:32:00",1
"20/08/28","04:50",0.0,26.1,87.6,1004.5,14.0,1.0,1.7,296.1,0.00,23.9,26.9,"04:46:56",1
"20/08/28","05:00",0.0,26.1,87.8,1004.3,337.5,1.0,1.9,345.3,0.00,24.0,26.7,"04:58:16",1
"20/08/28","05:10",0.0,26.0,87.9,1003.8,300.9,0.5,0.9,322.6,0.00,23.9,26.8,"05:04:48",1
"20/08/28","05:20",0.0,26.0,88.0,1004.5,305.2,0.7,1.3,336.6,0.00,23.9,26.7,"05:12:56",1
"20/08/28","05:30",0.0,25.9,88.2,1004.3,323.2,0.6,0.9,336.7,0.00,23.8,26.8,"05:23:04",1
"20/08/28","05:40",0.0,26.0,88.4,1004.3,352.0,0.8,1.8,338.7,0.00,24.0,26.8,"05:33:44",1
"20/08/28","05:50",0.0,26.0,88.6,1004.5,272.4,0.5,1.0,252.6,0.00,24.0,26.6,"05:46:56",1
"20/08/28","06:00",0.0,25.9,88.7,1004.8,304.5,0.5,1.0,265.7,0.00,23.9,26.7,"05:52:16",1
"20/08/28","06:10",0.0,25.9,88.8,1004.5,308.4,0.5,1.0,313.5,0.00,23.9,26.7,"06:09:20",1
"20/08/28","06:20",0.0,25.8,89.0,1004.8,314.5,0.8,1.3,323.0,0.00,23.9,26.7,"06:12:08",1
"20/08/28","06:30",0.0,25.8,89.1,1005.0,299.1,0.3,1.1,341.3,0.00,23.9,26.9,"06:20:02",1
"20/08/28","06:40",0.0,25.9,89.3,1004.5,327.3,1.1,1.9,345.9,0.00,24.0,26.7,"06:39:20",1
"20/08/28","06:50",0.2,25.8,89.6,1004.8,326.0,1.1,1.7,326.8,0.00,24.0,26.7,"06:40:56",1
"20/08/28","07:00",0.0,25.8,89.8,1004.8,311.8,1.0,2.2,336.3,0.00,24.0,26.8,"06:50:16",1
"20/08/28","07:10",0.0,25.9,90.0,1004.5,282.5,0.7,1.7,262.1,0.00,24.2,26.6,"07:08:56",1
"20/08/28","07:20",0.0,26.0,90.1,1004.5,284.0,1.0,1.8,233.6,0.02,24.3,26.7,"07:11:44",1
"20/08/28","07:30",0.0,26.2,90.1,1004.8,295.7,0.8,2.6,341.5,0.02,24.5,26.5,"07:20:02",1
"20/08/28","07:40",0.0,26.2,90.1,1004.8,324.9,1.5,2.5,341.7,0.02,24.5,26.7,"07:30:08",1
"20/08/28","07:50",0.0,26.5,90.0,1004.5,333.5,1.0,1.8,340.7,0.04,24.8,26.9,"07:49:44",1
"20/08/28","08:00",0.0,26.7,90.0,1004.5,331.8,1.0,1.8,352.5,0.05,25.0,27.0,"07:51:20",1
"20/08/28","08:10",0.0,26.8,89.7,1004.3,335.0,0.8,1.8,337.9,0.06,25.0,26.8,"08:05:36",1
"20/08/28","08:20",0.0,27.0,89.4,1004.3,308.6,1.0,1.8,342.1,0.07,25.1,27.2,"08:10:40",1
"20/08/28","08:30",0.0,27.3,89.1,1004.3,329.3,0.8,1.2,306.2,0.07,25.4,27.1,"08:23:04",1
"20/08/28","08:40",0.0,27.7,88.6,1004.1,328.4,0.5,1.1,339.9,0.10,25.7,27.3,"08:37:52",1
"20/08/28","08:50",0.0,28.2,87.9,1004.1,292.0,0.2,1.1,312.0,0.11,26.0,27.4,"08:45:28",1
"20/08/28","09:00",0.0,28.3,87.2,1004.3,294.5,0.3,1.4,229.6,0.10,26.0,27.4,"08:50:32",1
"20/08/28","09:10",0.0,28.3,85.9,1003.8,272.1,0.5,1.0,321.3,0.08,25.8,27.6,"09:08:48",1
"20/08/28","09:20",0.0,28.4,84.1,1003.8,343.7,0.5,0.9,332.4,0.04,25.5,27.6,"09:14:24",1
"20/08/28","09:30",0.0,28.4,83.3,1003.8,129.1,0.7,2.6,119.1,0.02,25.3,27.6,"09:29:44",1
"20/08/28","09:40",0.8,27.7,84.1,1004.3,105.2,1.3,3.3,112.2,0.05,24.8,27.6,"09:30:40",1
"20/08/28","09:50",1.2,27.3,85.2,1004.1,108.4,0.5,1.8,108.8,0.08,24.6,27.6,"09:40:48",1
"20/08/28","10:00",1.0,27.1,86.2,1004.3,228.5,0.3,1.3,297.6,0.07,24.6,27.7,"09:59:36",1
"20/08/28","10:10",0.6,27.0,87.0,1004.3,273.7,0.7,1.4,247.9,0.07,24.7,27.6,"10:04:16",1
"20/08/28","10:20",0.4,26.9,87.9,1004.1,252.5,1.0,1.9,215.0,0.09,24.8,27.7,"10:16:24",1
"20/08/28","10:30",0.2,27.0,88.5,1004.1,255.2,0.7,1.7,274.0,0.09,25.0,27.7,"10:27:20",1
"20/08/28","10:40",0.2,27.0,89.0,1003.8,249.3,0.8,2.4,229.0,0.09,25.1,27.7,"10:36:40",1
"20/08/28","10:50",0.4,27.0,89.5,1003.8,248.0,1.1,2.1,230.6,0.09,25.2,27.8,"10:48:08",1
"20/08/28","11:00",0.2,27.1,89.7,1004.1,257.4,0.8,2.4,227.7,0.10,25.3,27.8,"10:55:28",1
"20/08/28","11:10",0.4,27.2,90.0,1004.1,253.3,1.0,2.9,229.7,0.10,25.5,27.8,"11:09:16",1
"20/08/28","11:20",0.6,27.1,90.3,1004.1,255.8,0.8,1.6,301.1,0.10,25.4,27.8,"11:13:04",1
"20/08/28","11:30",0.6,26.9,90.5,1003.6,260.7,0.8,1.9,230.9,0.09,25.3,27.9,"11:24:24",1
"20/08/28","11:40",0.0,27.0,90.8,1003.8,284.3,0.6,1.6,338.3,0.09,25.4,27.8,"11:39:28",1
"20/08/28","11:50",0.0,27.3,91.1,1003.8,302.9,0.7,1.7,338.5,0.13,25.8,27.9,"11:40:32",1
"20/08/28","12:00",0.0,27.6,91.2,1003.8,348.5,0.8,2.0,344.6,0.20,26.1,27.9,"11:55:36",1
"20/08/28","12:10",0.0,27.9,91.1,1003.4,277.1,0.5,1.4,229.4,0.14,26.4,28.2,"12:00:02",1
"20/08/28","12:20",0.0,28.2,91.2,1003.1,270.0,0.5,1.2,336.2,0.19,26.7,28.2,"12:18:32",1
"20/08/28","12:30",0.0,28.4,90.9,1003.4,258.1,0.5,1.3,249.2,0.19,26.8,28.4,"12:23:36",1
"20/08/28","12:40",0.0,28.2,90.7,1003.8,339.2,0.5,1.7,336.3,0.08,26.6,28.7,"12:31:20",1
"20/08/28","12:50",0.0,28.2,90.7,1003.4,289.7,0.5,1.2,252.5,0.10,26.6,28.8,"12:48:08",1
"20/08/28","13:00",0.0,27.9,90.7,1003.4,307.8,1.1,2.6,346.3,0.07,26.3,28.8,"12:52:16",1
"20/08/28","13:10",0.4,27.4,90.6,1002.9,291.0,1.0,2.0,338.8,0.02,25.8,28.6,"13:00:16",1
"20/08/28","13:20",3.0,27.1,90.8,1003.4,298.5,0.8,2.2,245.4,0.04,25.5,28.6,"13:10:24",1
"20/08/28","13:30",0.8,27.5,91.5,1003.1,356.2,1.0,2.4,0.3,0.28,26.0,28.6,"13:28:00",1
"20/08/28","13:40",0.0,28.3,91.0,1002.2,354.0,0.8,2.1,6.3,0.64,26.7,28.6,"13:30:56",1
"20/08/28","13:50",0.0,29.0,90.6,1003.6,329.2,0.5,2.0,311.6,0.55,27.3,29.2,"13:44:56",1
"20/08/28","14:00",0.0,29.0,89.4,1004.3,2.6,0.8,1.9,8.0,0.41,27.1,29.5,"13:55:36",1
"20/08/28","14:10",0.0,29.1,88.6,1004.1,41.5,0.5,2.2,116.0,0.18,27.1,29.4,"14:06:24",1
"20/08/28","14:20",0.0,29.7,87.6,1004.3,305.7,0.2,0.9,336.8,0.20,27.5,29.7,"14:10:32",1
"20/08/28","14:30",0.0,29.8,86.9,1004.1,262.5,0.5,1.3,230.4,0.18,27.4,29.8,"14:24:00",1
"20/08/28","14:40",0.0,29.8,85.5,1004.3,266.9,0.6,1.2,252.7,0.24,27.1,29.7,"14:31:52",1
"20/08/28","14:50",0.0,30.6,84.0,1004.5,318.9,0.7,1.7,345.8,0.43,27.6,30.1,"14:44:24",1
"20/08/28","15:00",0.0,31.2,81.0,1004.5,30.1,1.0,1.9,358.2,0.39,27.6,30.4,"14:50:24",1
"20/08/28","15:10",0.0,31.4,78.7,1004.5,199.5,1.5,2.8,210.0,0.36,27.3,30.3,"15:05:52",1
"20/08/28","15:20",0.0,31.7,77.0,1004.8,306.7,0.8,1.9,343.7,0.28,27.2,30.5,"15:16:08",1
"20/08/28","15:30",0.0,31.9,75.5,1004.5,359.3,1.1,2.5,351.7,0.33,27.1,30.7,"15:24:08",1
"20/08/28","15:40",0.0,32.2,74.4,1004.5,339.6,0.7,2.0,352.6,0.20,27.1,30.7,"15:33:12",1
"20/08/28","15:50",0.0,32.5,73.0,1004.8,304.0,0.6,1.4,3.8,0.28,27.1,30.8,"15:46:24",1
"20/08/28","16:00",0.0,32.2,72.2,1004.8,347.8,0.8,1.8,348.6,0.09,26.6,30.7,"15:55:36",1
"20/08/28","16:10",0.0,31.8,73.2,1004.5,281.9,0.6,1.3,317.3,0.09,26.4,30.8,"16:01:36",1
"20/08/28","16:20",0.0,32.2,74.0,1004.3,294.7,0.6,1.4,310.2,0.18,27.0,30.7,"16:19:44",1
"20/08/28","16:30",0.2,32.4,72.9,1004.8,351.4,0.7,1.6,348.5,0.17,26.9,30.7,"16:29:44",1
"20/08/28","16:40",0.0,32.8,71.6,1004.5,343.0,0.6,1.9,349.7,0.17,27.0,30.5,"16:38:00",1
"20/08/28","16:50",0.0,33.0,70.4,1004.8,41.9,0.7,1.8,116.4,0.16,26.9,30.5,"16:48:48",1
"20/08/28","17:00",0.0,32.7,70.4,1004.5,55.9,1.1,2.0,12.7,0.12,26.6,30.5,"16:53:28",1
"20/08/28","17:10",0.0,32.7,70.7,1004.1,43.8,0.7,2.0,46.0,0.11,26.7,30.6,"17:05:28",1
"20/08/28","17:20",0.0,32.7,70.9,1004.5,37.4,0.6,1.6,4.2,0.09,26.8,30.4,"17:14:00",1
"20/08/28","17:30",0.0,32.8,70.6,1004.8,52.0,0.5,1.4,32.4,0.09,26.8,30.5,"17:23:04",1
"20/08/28","17:40",0.0,32.4,70.8,1004.3,48.8,1.0,2.2,107.6,0.08,26.5,30.5,"17:34:08",1
"20/08/28","17:50",0.2,31.8,73.0,1004.1,24.1,0.8,2.4,10.7,0.06,26.4,30.2,"17:47:28",1
"20/08/28","18:00",0.0,30.9,75.9,1003.6,33.2,0.8,2.5,348.2,0.02,26.2,30.3,"17:50:16",1
"20/08/28","18:10",0.0,30.4,77.8,1003.1,29.8,0.5,1.3,2.8,0.01,26.1,30.0,"18:09:12",1
"20/08/28","18:20",0.0,30.0,79.1,1003.1,51.2,0.5,1.9,112.2,0.00,26.0,30.0,"18:19:52",1
"20/08/28","18:30",0.0,29.6,79.9,1003.1,79.6,1.3,3.2,79.8,0.00,25.8,29.9,"18:24:48",1
"20/08/28","18:40",0.2,29.1,80.2,1002.6,86.1,1.0,3.1,109.9,0.00,25.4,29.9,"18:37:44",1
"20/08/28","18:50",0.0,29.0,80.7,1003.6,237.4,0.5,2.0,126.9,0.00,25.4,29.6,"18:40:32",1
"20/08/28","19:00",0.0,28.6,81.5,1003.8,290.9,0.7,2.4,237.4,0.00,25.2,29.6,"18:59:20",1
"20/08/28","19:10",0.0,28.5,83.0,1004.1,272.1,1.0,1.6,280.8,0.00,25.4,29.3,"19:01:28",1
"20/08/28","19:20",0.0,28.3,84.3,1004.1,325.3,0.8,1.8,331.8,0.00,25.4,29.5,"19:15:36",1
"20/08/28","19:30",0.0,28.0,85.1,1004.3,292.2,0.7,1.4,311.4,0.00,25.3,29.3,"19:24:48",1
"20/08/28","19:40",0.0,28.0,86.0,1004.8,269.1,1.0,1.8,235.4,0.00,25.5,29.2,"19:35:52",1
"20/08/28","19:50",0.0,27.7,86.7,1004.8,278.7,0.7,1.1,328.1,0.00,25.3,29.2,"19:41:36",1
"20/08/28","20:00",0.0,27.7,87.2,1005.2,290.8,0.7,1.1,305.8,0.00,25.4,29.1,"19:51:52",1
"20/08/28","20:10",0.0,27.7,87.6,1005.5,266.0,0.7,1.8,238.5,0.00,25.5,29.1,"20:09:04",1
"20/08/28","20:20",0.0,27.7,87.9,1005.5,269.2,0.8,1.7,283.9,0.00,25.6,29.1,"20:17:28",1
"20/08/28","20:30",0.0,27.6,88.3,1005.2,282.5,0.8,1.8,316.0,0.00,25.5,28.8,"20:22:40",1
"20/08/28","20:40",0.0,27.6,88.5,1005.7,271.9,0.8,1.8,300.1,0.00,25.6,28.6,"20:38:40",1
"20/08/28","20:50",0.0,27.5,88.8,1005.5,308.0,1.1,1.7,289.2,0.00,25.5,28.7,"20:40:40",1
"20/08/28","21:00",0.0,27.5,89.1,1005.2,334.8,1.2,2.1,326.2,0.00,25.6,28.7,"20:59:52",1
"20/08/28","21:10",0.0,27.5,89.3,1005.2,336.0,1.0,1.7,338.2,0.00,25.6,28.8,"21:02:00",1
"20/08/28","21:20",0.0,27.4,89.5,1005.2,346.7,1.1,1.8,346.7,0.00,25.6,28.5,"21:18:16",1
"20/08/28","21:30",0.0,27.3,89.7,1005.2,324.0,1.3,1.7,328.2,0.00,25.5,28.4,"21:20:08",1
"20/08/28","21:40",0.0,27.2,90.0,1005.5,290.7,1.0,1.4,338.4,0.00,25.5,28.7,"21:30:56",1
"20/08/28","21:50",0.0,27.0,90.2,1005.5,275.1,0.7,1.6,261.6,0.00,25.3,28.4,"21:40:08",1
"20/08/28","22:00",0.0,27.1,90.4,1005.5,296.1,0.8,1.2,311.8,0.00,25.4,28.5,"21:52:56",1
"20/08/28","22:10",0.0,26.9,90.5,1005.7,306.8,0.6,1.2,333.5,0.00,25.3,28.4,"22:09:36",1
"20/08/28","22:20",0.0,27.1,90.6,1005.7,333.7,1.2,1.6,334.9,0.00,25.5,28.2,"22:13:44",1
"20/08/28","22:30",0.0,27.0,90.7,1005.7,312.5,1.0,1.3,322.1,0.00,25.4,28.4,"22:25:36",1
"20/08/28","22:40",0.0,27.0,90.9,1005.5,324.7,1.1,1.7,339.8,0.00,25.4,28.3,"22:30:56",1
"20/08/28","22:50",0.0,27.0,91.0,1005.5,323.9,0.8,1.1,324.3,0.00,25.4,28.3,"22:49:52",1
"20/08/28","23:00",0.0,27.0,91.1,1005.7,290.7,0.8,1.2,336.2,0.00,25.5,28.2,"22:50:24",1
"20/08/28","23:10",0.0,26.9,91.2,1005.7,274.1,0.7,1.2,267.4,0.00,25.4,28.1,"23:08:40",1
"20/08/28","23:20",0.0,26.9,91.3,1005.7,282.4,0.7,1.2,235.4,0.00,25.4,28.1,"23:12:00",1
"20/08/28","23:30",0.0,26.9,91.4,1005.5,272.6,0.8,1.6,246.3,0.00,25.4,28.0,"23:29:44",1
"20/08/28","23:40",0.0,26.9,91.5,1006.0,278.4,0.8,1.3,294.5,0.00,25.4,28.1,"23:35:52",1
"20/08/28","23:50",0.0,26.9,91.6,1005.7,293.0,0.8,1.4,330.8,0.00,25.5,28.0,"23:48:48",1
"20/08/28","24:00",0.0,26.9,91.6,1006.0,325.8,1.1,1.2,337.6,0.00,25.5,27.7,"23:53:44",1
